Date String (YYYY-MM-DD hh:mm:ss) UTC,Instrument flags,Ambient pressure (hPa),Sample flow (lpm),Bypass flow (lpm),Sample temperature (°C),Ambient temperature (°C),ASC tube jacket temperature (°C),LED temperature (°C),Box temperature (°C),Sample RH (%),Span deviation,Mass concentration (μg/m³),Mass concentration (μg/m³),Mass concentration (μg/m³)
DateTimeUTC,F1_M11,P_M11,Q1_M11,Q2_M11,T1_M11,T2_M11,T3_M11,T4_M11,T5_M11,U1_M11,ZSPAN_M11,X0_M11,X2_M11,X1_M11
2022-03-25 09:00:00,,0829.6,4.99,0.00,27.2,26.2,00.0,36.2,28.9,15.0,0000.0,0007.83,0003.01,0001.31
2022-03-25 09:01:00,,0829.6,5.00,0.00,27.2,26.2,00.0,36.2,28.9,15.1,0000.0,0006.90,0003.01,0001.31
2022-03-25 09:02:00,,0829.6,5.00,0.00,27.2,26.2,00.0,36.2,28.9,15.0,0000.0,0006.47,0002.98,0001.30
2022-03-25 09:03:00,,0829.6,5.00,0.00,27.1,26.2,00.0,36.2,28.9,14.9,0000.0,0006.63,0003.03,0001.30
2022-03-25 09:04:00,,0829.6,5.02,0.00,27.1,26.2,00.0,36.2,28.9,14.9,0000.0,0006.68,0003.03,0001.31
2022-03-25 09:05:00,,0829.6,4.99,0.00,27.1,26.1,00.0,36.2,28.9,14.9,0000.0,0007.42,0003.06,0001.32
2022-03-25 09:06:00,,0829.6,5.00,0.00,27.1,26.1,00.0,36.2,28.8,14.8,0000.0,0007.59,0003.01,0001.33
2022-03-25 09:07:00,,0829.6,5.00,0.00,27.1,26.1,00.0,36.2,28.8,14.7,0000.0,0007.57,0002.99,0001.34
2022-03-25 09:08:00,,0829.6,5.00,0.00,27.1,26.1,00.0,36.2,28.8,14.7,0000.0,0007.71,0003.08,0001.33
2022-03-25 09:09:00,,0829.6,5.00,0.00,27.1,26.1,00.0,36.1,28.8,14.7,0000.0,0007.62,0003.11,0001.34
2022-03-25 09:10:00,,0829.6,5.00,0.00,27.1,26.1,00.0,36.1,28.8,14.7,0000.0,0007.55,0003.07,0001.32
2022-03-25 09:11:00,,0829.7,5.02,0.00,27.1,26.1,00.0,36.1,28.9,14.6,0000.0,0007.59,0003.05,0001.31
2022-03-25 09:12:00,,0829.7,4.99,0.00,27.1,26.1,00.0,36.1,28.8,14.6,0000.0,0007.75,0003.10,0001.32
2022-03-25 09:13:00,,0829.7,5.00,0.00,27.1,26.1,00.0,36.1,28.8,14.6,0000.0,0008.20,0003.14,0001.33
2022-03-25 09:14:00,,0829.8,5.00,0.00,27.1,26.1,00.0,36.1,28.8,14.6,0000.0,0008.75,0003.09,0001.32
2022-03-25 09:15:00,,0829.8,5.00,0.00,27.1,26.1,00.0,36.1,28.8,14.5,0000.0,0008.68,0003.10,0001.32
2022-03-25 09:16:00,,0829.8,5.00,0.00,27.0,26.1,00.0,36.1,28.8,14.5,0000.0,0008.27,0003.09,0001.32
2022-03-25 09:17:00,,0829.8,5.01,0.00,27.0,26.1,00.0,36.1,28.8,14.5,0000.0,0008.26,0003.08,0001.31
2022-03-25 09:18:00,,0829.8,5.00,0.00,27.0,26.1,00.0,36.1,28.8,14.5,0000.0,0008.30,0003.05,0001.28
2022-03-25 09:19:00,,0829.8,4.99,0.00,27.0,26.1,00.0,36.1,28.8,14.5,0000.0,0008.37,0003.10,0001.28
2022-03-25 09:20:00,,0829.8,5.01,0.00,27.0,26.1,00.0,36.1,28.8,14.4,0000.0,0008.37,0003.10,0001.28
2022-03-25 09:21:00,,0829.8,4.99,0.00,27.0,26.1,00.0,36.1,28.8,14.4,0000.0,0009.93,0003.15,0001.28
2022-03-25 09:22:00,,0829.8,4.99,0.00,27.0,26.1,00.0,36.0,28.8,14.4,0000.0,0009.96,0003.16,0001.27
2022-03-25 09:23:00,,0829.9,5.00,0.00,27.0,26.1,00.0,36.1,28.8,14.4,0000.0,0010.03,0003.14,0001.26
2022-03-25 09:24:00,,0829.9,5.00,0.00,27.0,26.0,00.0,36.0,28.8,14.3,0000.0,0010.13,0003.13,0001.26
2022-03-25 09:25:00,,0830.0,5.01,0.00,27.0,26.0,00.0,36.0,28.8,14.2,0000.0,0009.64,0003.21,0001.27
2022-03-25 09:26:00,,0830.0,5.01,0.00,27.0,26.0,00.0,36.0,28.8,14.2,0000.0,0010.08,0003.24,0001.27
2022-03-25 09:27:00,,0830.0,4.99,0.00,27.0,26.0,00.0,36.0,28.8,14.3,0000.0,0009.97,0003.20,0001.27
2022-03-25 09:28:00,,0830.0,5.00,0.00,27.0,26.0,00.0,36.0,28.7,14.3,0000.0,0009.80,0003.17,0001.27
2022-03-25 09:29:00,,0830.0,4.99,0.00,27.0,26.0,00.0,36.0,28.7,14.3,0000.0,0009.68,0003.14,0001.27
2022-03-25 09:30:00,,0830.0,5.01,0.00,27.0,26.0,00.0,36.0,28.7,14.3,0000.0,0009.97,0003.11,0001.27
2022-03-25 09:31:00,,0830.0,5.00,0.00,27.0,26.0,00.0,36.0,28.7,14.3,0000.0,0010.50,0003.11,0001.27
2022-03-25 09:32:00,,0830.0,4.99,0.00,27.0,26.0,00.0,36.0,28.7,14.3,0000.0,0009.94,0003.07,0001.27
2022-03-25 09:33:00,,0830.1,5.00,0.00,26.9,25.9,00.0,36.0,28.7,14.3,0000.0,0009.30,0003.08,0001.29
2022-03-25 09:34:00,,0830.1,5.00,0.00,26.9,25.9,00.0,36.0,28.7,14.3,0000.0,0010.35,0003.14,0001.32
2022-03-25 09:35:00,,0830.0,5.01,0.00,26.9,25.9,00.0,35.9,28.7,14.3,0000.0,0010.35,0003.15,0001.32
2022-03-25 09:36:00,,0830.0,5.00,0.00,26.9,25.9,00.0,35.9,28.7,14.3,0000.0,0010.31,0003.18,0001.34
2022-03-25 09:37:00,,0830.1,5.01,0.00,26.9,26.0,00.0,35.9,28.7,14.3,0000.0,0010.19,0003.15,0001.34
2022-03-25 09:38:00,,0830.0,5.00,0.00,26.9,26.0,00.0,35.9,28.7,14.3,0000.0,0011.02,0003.16,0001.34
2022-03-25 09:39:00,,0830.0,5.00,0.00,26.9,26.0,00.0,35.9,28.7,14.3,0000.0,0011.18,0003.18,0001.33
2022-03-25 09:40:00,,0830.0,5.00,0.00,26.9,25.9,00.0,35.9,28.7,14.3,0000.0,0011.79,0003.21,0001.35
2022-03-25 09:41:00,,0830.1,5.00,0.00,26.9,25.9,00.0,35.9,28.7,14.4,0000.0,0012.64,0003.26,0001.37
2022-03-25 09:42:00,,0830.0,5.00,0.00,26.9,25.9,00.0,35.9,28.7,14.5,0000.0,0012.70,0003.26,0001.37
2022-03-25 09:43:00,,0830.1,5.00,0.00,26.9,25.9,00.0,35.9,28.7,14.5,0000.0,0012.51,0003.28,0001.38
2022-03-25 09:44:00,,0830.1,5.00,0.00,26.9,25.9,00.0,35.9,28.7,14.4,0000.0,0012.63,0003.27,0001.39
2022-03-25 09:45:00,,0830.1,5.00,0.00,26.9,25.8,00.0,35.9,28.7,14.5,0000.0,0012.32,0003.22,0001.39
2022-03-25 09:46:00,,0830.1,5.00,0.00,26.9,25.8,00.0,35.9,28.7,14.5,0000.0,0011.97,0003.26,0001.39
2022-03-25 09:47:00,,0830.0,4.99,0.00,26.9,25.9,00.0,35.9,28.7,14.5,0000.0,0011.80,0003.22,0001.38
2022-03-25 09:48:00,,0830.0,5.01,0.00,26.9,25.8,00.0,35.9,28.6,14.6,0000.0,0011.55,0003.17,0001.37
2022-03-25 09:49:00,,0830.1,5.01,0.00,26.9,25.8,00.0,35.9,28.6,14.6,0000.0,0010.87,0003.16,0001.40
2022-03-25 09:50:00,,0830.1,5.01,0.00,26.9,25.8,00.0,35.9,28.6,14.7,0000.0,0011.11,0003.18,0001.42
2022-03-25 09:51:00,,0830.0,5.00,0.00,26.9,25.8,00.0,35.9,28.6,14.7,0000.0,0011.06,0003.20,0001.42
2022-03-25 09:52:00,,0830.0,5.00,0.00,26.8,25.8,00.0,35.9,28.6,14.7,0000.0,0010.83,0003.17,0001.43
2022-03-25 09:53:00,,0830.1,4.99,0.00,26.8,25.8,00.0,35.9,28.6,14.7,0000.0,0010.64,0003.16,0001.46
2022-03-25 09:54:00,,0830.1,5.00,0.00,26.8,25.8,00.0,35.8,28.6,14.7,0000.0,0010.58,0003.18,0001.46
2022-03-25 09:55:00,,0830.1,5.00,0.00,26.8,25.8,00.0,35.8,28.6,14.8,0000.0,0010.48,0003.21,0001.47
2022-03-25 09:56:00,,0830.1,4.99,0.00,26.8,25.7,00.0,35.8,28.6,14.8,0000.0,0010.07,0003.23,0001.48
2022-03-25 09:57:00,,0830.1,5.00,0.00,26.8,25.7,00.0,35.8,28.6,14.8,0000.0,0009.76,0003.22,0001.49
2022-03-25 09:58:00,,0830.1,5.00,0.00,26.8,25.8,00.0,35.8,28.6,14.8,0000.0,0009.65,0003.19,0001.50
2022-03-25 09:59:00,,0830.2,5.00,0.00,26.8,25.7,00.0,35.8,28.6,14.8,0000.0,0009.68,0003.19,0001.50
